CAPE
6 1 4 0 0 0 0 0 0 0 0 5 0 0 0 5 120 99 138 151 204 113 47 18 0 70 317 319 319 348 276 212 40 0 0 22 21 0 0 0 0 0 0 0
2 12 0 0 0 0 0 2 0 0 0 0 0 0 0 2 104 192 22 251 277 247 209 185 210 140 678 448 459 440 403 267 49 0 2 65 0 0 0 0 0 0 0 0
2 0 0 0 0 0 2 16 8 0 0 0 0 0 0 1 30 156 126 215 319 313 357 428 418 629 964 767 524 519 469 382 273 75 99 11 0 0 0 0 0 0 0 0
0 0 0 0 0 4 0 0 3 0 0 0 0 5 24 8 10 15 177 296 384 279 505 584 626 570 1022 943 690 571 494 313 251 211 23 0 0 0 0 0 0 0 0 0
0 0 0 0 0 0 2 0 0 1 0 1 0 0 0 3 0 0 15 77 256 399 579 666 778 885 1007 963 704 529 269 284 380 144 0 0 0 0 0 0 0 0 0 0
1 0 0 0 0 0 1 0 3 12 0 2 0 0 0 0 0 0 0 105 245 266 594 737 881 880 864 751 558 405 186 2 0 0 0 0 0 0 0 0 0 0 0 0
0 0 0 14 8 5 2 0 0 0 0 0 18 0 0 0 1 0 0 20 95 464 618 793 927 845 580 386 247 45 0 0 0 0 0 0 0 0 0 0 0 0 0 0
0 12 9 12 20 10 0 0 3 0 0 0 5 20 0 0 0 0 0 1 16 498 661 708 575 389 181 10 0 0 0 0 0 0 0 0 0 0 0 0 0 0 0 0
0 1 2 1 30 15 4 0 12 0 0 0 19 4 12 2 0 6 0 0 357 478 540 405 163 75 1 0 0 0 0 0 0 0 0 0 0 0 0 0 0 0 0 0
2 0 0 0 16 4 5 0 5 1 0 0 0 0 26 5 5 85 9 297 533 506 283 133 25 0 0 0 0 0 0 0 0 0 0 0 0 0 0 0 0 0 0 0
0 0 3 0 18 0 0 0 0 0 0 0 13 0 0 0 0 62 282 489 545 412 90 1 0 0 0 0 0 0 0 0 0 0 0 0 0 0 0 0 0 0 0 0
1 0 2 42 2 36 9 2 14 0 0 0 0 0 0 0 0 0 6 364 434 292 43 0 0 0 0 0 0 0 0 0 0 0 0 0 0 0 0 0 0 0 0 0
47 0 0 0 0 60 9 0 0 1 0 0 0 0 0 0 0 0 0 0 264 246 8 0 0 0 0 0 0 0 0 0 0 0 0 0 0 0 0 0 0 0 0 0
4 15 0 0 0 7 13 13 10 0 0 0 0 0 0 0 0 0 0 0 27 187 61 0 0 0 0 0 0 0 0 0 0 0 0 0 0 0 0 0 0 0 0 0
0 0 0 0 0 5 13 2 1 1 0 0 0 0 0 0 0 0 0 0 0 0 17 14 0 0 0 0 0 0 0 0 0 0 0 0 0 0 0 0 0 0 0 0
0 0 0 0 0 0 0 0 0 0 0 0 0 0 0 0 0 0 0 0 0 0 0 0 0 0 0 0 0 0 0 0 0 0 0 0 0 0 0 0 0 0 0 0
0 0 0 0 0 0 0 0 0 0 0 0 0 0 0 0 0 0 0 0 0 0 0 0 4 21 0 0 0 0 0 0 0 0 0 0 0 0 0 0 0 0 0 0
0 3 0 0 0 0 0 0 0 0 0 0 0 0 0 0 0 0 0 0 0 0 0 0 0 1 28 0 0 0 0 0 0 0 0 0 0 0 0 0 0 0 0 0
7 0 0 0 0 0 0 0 0 0 0 0 0 0 0 0 0 0 0 0 0 0 0 0 0 0 0 0 0 0 0 0 0 0 0 0 0 0 0 0 0 0 0 0
0 0 0 0 0 0 0 0 0 0 0 0 0 0 0 0 0 0 0 0 0 0 0 0 0 0 0 0 0 0 0 0 0 0 0 0 0 0 0 0 0 0 0 0
0 0 0 0 0 0 0 0 0 0 0 0 0 0 0 0 0 0 0 0 0 0 0 0 0 0 0 0 0 0 0 0 0 0 0 0 0 0 0 0 0 0 0 0
0 0 0 0 0 0 0 0 0 0 0 0 0 0 0 0 0 0 0 0 0 0 0 0 0 0 0 0 0 0 0 0 0 0 0 0 0 0 0 0 0 0 0 0
0 0 0 0 0 0 0 0 0 0 0 0 0 0 0 0 0 0 0 0 0 0 0 0 0 0 0 0 0 0 0 0 0 0 0 0 0 0 0 0 0 0 0 0
0 0 0 0 0 0 0 0 0 0 0 0 0 0 0 0 0 0 0 0 0 0 0 0 0 0 0 0 0 0 0 0 0 0 0 0 0 0 0 0 0 0 0 0
0 0 0 0 0 0 0 0 0 0 0 0 0 0 0 0 0 0 0 0 0 0 0 0 0 0 0 0 0 0 0 0 0 0 0 0 0 0 0 0 0 0 0 0
0 0 0 0 0 0 0 0 0 0 0 0 0 0 0 0 0 0 0 0 0 0 0 0 0 0 0 0 0 0 0 0 0 0 0 0 0 0 0 0 0 0 0 0
CIN
-45 -60 -26 0 0 0 0 0 0 0 0 -23 0 0 0 -16 -24 -32 -50 -76 -47 -64 -114 -124 0 -85 -118 -172 -160 -158 -176 -164 -211 0 0 -150 -83 0 0 0 0 0 0 0
-12 -24 0 0 0 0 0 -7 0 0 0 0 0 0 0 -13 -32 -38 -49 -43 -49 -67 -91 -90 -71 -80 -95 -143 -157 -145 -148 -183 -215 0 -55 -89 0 0 0 0 0 0 0 0
-14 0 0 0 0 -19 -11 -27 -31 0 0 0 0 0 0 -7 -39 -57 -52 -58 -48 -59 -88 -108 -88 -56 -69 -114 -159 -170 -155 -160 -127 -154 -98 -64 0 0 0 0 0 0 0 0
0 -10 0 0 0 -9 0 0 -51 0 -1 0 0 -21 -43 -37 -24 -28 -20 -37 -42 -64 -77 -100 -118 -97 -67 -108 -130 -138 -115 -135 -114 -92 -157 0 0 0 0 0 0 0 0 0
0 0 0 0 0 0 -23 0 0 -20 -2 -26 -1 0 0 -43 0 0 -42 -27 -55 -68 -80 -104 -106 -122 -101 -89 -116 -117 -136 -84 -54 -112 0 0 0 0 0 0 0 0 0 0
-14 0 0 -70 -21 0 -17 -2 -15 -31 0 -14 0 0 0 0 -10 0 0 -45 -32 -83 -91 -104 -108 -101 -89 -106 -98 -80 -122 -74 0 0 0 0 0 0 0 0 0 0 0 0
0 0 0 -18 -31 -33 -39 0 0 0 0 -8 -74 0 0 -9 -45 0 0 -110 -136 -63 -76 -89 -78 -82 -136 -139 -129 -277 0 0 0 0 0 0 0 0 0 0 0 0 0 0
-3 -9 -40 -40 -38 -8 0 0 -19 0 0 0 -78 -24 0 0 0 0 -2 -11 -115 -88 -87 -115 -147 -184 -231 -197 0 0 0 0 0 0 0 0 0 0 0 0 0 0 0 0
0 -13 -104 -62 -58 -27 -20 -4 -20 0 0 -2 -54 -7 -41 -44 0 -137 0 0 -125 -85 -104 -151 -235 -319 -257 0 0 0 0 0 0 0 0 0 0 0 0 0 0 0 0 0
-17 0 0 0 -83 -27 -12 0 -8 -2 0 0 0 0 -30 -42 -50 -84 -78 -148 -86 -99 -128 -185 -310 0 0 0 0 0 0 0 0 0 0 0 0 0 0 0 0 0 0 0
0 0 -51 0 -60 0 0 0 0 0 0 0 -54 0 0 0 0 -71 -48 -39 -66 -105 -177 -51 0 0 0 0 0 0 0 0 0 0 0 0 0 0 0 0 0 0 0 0
-21 -2 -67 -84 -31 -9 -12 -2 -57 0 0 0 0 -1 0 0 0 0 -7 -52 -69 -118 -216 0 0 0 0 0 0 0 0 0 0 0 0 0 0 0 0 0 0 0 0 0
-43 0 0 0 0 -15 -10 0 0 -22 0 0 0 0 0 0 0 0 0 0 -62 -81 -145 0 0 0 0 0 0 0 0 0 0 0 0 0 0 0 0 0 0 0 0 0
-58 -36 0 0 0 -6 -8 -18 -21 0 0 0 0 0 0 0 0 0 0 0 -108 -70 -84 0 0 0 0 0 0 0 0 0 0 0 0 0 0 0 0 0 0 0 0 0
0 0 0 0 0 -12 -6 -18 -5 -2 0 0 0 0 0 0 0 0 0 0 0 0 -24 -50 0 0 0 0 0 0 0 0 0 0 0 0 0 0 0 0 0 0 0 0
0 0 0 0 0 0 0 0 0 0 0 0 0 0 0 0 0 0 0 0 0 0 0 0 0 0 0 0 0 0 0 0 0 0 0 0 0 0 0 0 0 0 0 0
0 0 0 0 0 0 0 0 0 0 0 0 0 0 0 0 0 0 0 0 0 0 0 0 -46 -110 0 0 0 0 0 0 0 0 0 0 0 0 0 0 0 0 0 0
0 -26 0 0 0 0 0 0 0 0 0 0 0 0 0 0 0 0 0 0 0 0 0 0 0 -31 -84 0 0 0 0 0 0 0 0 0 0 0 0 0 0 0 0 0
-83 0 0 0 0 0 0 0 0 0 0 0 0 0 0 0 0 0 0 0 0 0 0 0 0 0 0 0 0 0 0 0 0 0 0 0 0 0 0 0 0 0 0 0
0 0 0 0 0 0 0 0 0 0 0 0 0 0 0 0 0 0 0 0 0 0 0 0 0 0 0 0 0 0 0 0 0 0 0 0 0 0 0 0 0 0 0 0
0 0 0 0 0 0 0 0 0 0 0 0 0 0 0 0 0 0 0 0 0 0 0 0 0 0 0 0 0 0 0 0 0 0 0 0 0 0 0 0 0 0 0 0
0 0 0 0 0 0 0 0 0 0 0 0 0 0 0 0 0 0 0 0 0 0 0 0 0 0 0 0 0 0 0 0 0 0 0 0 0 0 0 0 0 0 0 0
0 0 0 0 0 0 0 0 0 0 0 0 0 0 0 0 0 0 0 0 0 0 0 0 0 0 0 0 0 0 0 0 0 0 0 0 0 0 0 0 0 0 0 0
0 0 0 0 0 0 0 0 0 0 0 0 0 0 0 0 0 0 0 0 0 0 0 0 0 0 0 0 0 0 0 0 0 0 0 0 0 0 0 0 0 0 0 0
0 0 0 0 0 0 0 0 0 0 0 0 0 0 0 0 0 0 0 0 0 0 0 0 0 0 0 0 0 0 0 0 0 0 0 0 0 0 0 0 0 0 0 0
0 0 0 0 0 0 0 0 0 0 0 0 0 0 0 0 0 0 0 0 0 0 0 0 0 0 0 0 0 0 0 0 0 0 0 0 0 0 0 0 0 0 0 0
Wind_Speed
18 20 21 20 19 16 19 20 23 25 24 14 7 6 12 12 15 15 11 11 14 14 13 14 13 12 16 17 16 14 12 10 10 8 7 8 8 10 10 12 13 13 14 15
16 22 18 19 24 22 21 22 22 15 16 11 8 13 14 18 15 17 14 16 13 13 13 12 9 10 14 15 11 11 10 9 7 7 6 7 9 10 11 12 12 13 14 15
18 21 21 23 22 24 22 17 18 12 12 8 16 13 20 20 17 16 14 16 14 14 13 13 12 10 12 11 11 9 8 7 7 11 8 8 9 9 9 10 11 11 13 15
23 23 26 24 24 18 16 21 20 14 14 9 14 11 18 22 5 4 9 13 13 10 12 12 11 8 9 8 8 6 7 6 11 12 7 7 5 5 7 8 10 11 13 17
15 25 25 25 26 20 20 21 21 18 11 7 18 9 21 5 12 9 6 7 11 13 14 12 10 7 6 6 5 6 7 9 8 6 8 6 6 8 8 10 12 14 17 19
21 21 18 24 23 19 21 19 20 22 18 5 18 16 17 4 15 6 6 22 8 6 11 8 8 7 5 4 3 6 6 7 8 6 6 5 5 6 9 10 13 16 19 23
21 27 24 16 21 20 16 20 20 21 24 19 25 18 1 5 8 15 17 15 4 2 9 9 8 6 5 4 4 6 7 5 6 6 6 6 5 7 8 11 14 18 21 25
19 19 17 17 21 19 22 14 14 21 18 26 25 18 20 4 4 13 12 10 4 5 7 7 6 6 4 5 6 5 3 3 4 5 5 7 7 9 11 14 16 19 22 24
18 20 24 26 21 20 18 17 12 12 21 17 19 25 15 12 7 3 9 7 8 6 6 7 7 5 5 3 2 1 0 2 4 5 6 8 10 12 13 15 18 21 22 23
19 24 26 15 25 26 13 19 16 15 15 19 18 19 12 12 12 6 10 10 8 6 6 6 6 5 3 1 1 2 2 3 5 6 8 10 12 13 13 16 18 21 22 24
11 17 17 13 17 16 8 18 20 19 18 19 18 14 13 16 13 10 9 9 7 7 5 4 3 3 2 1 1 3 5 6 6 7 10 12 13 14 15 17 19 20 21 22
9 13 12 0 13 13 17 21 18 17 19 18 17 19 17 14 13 12 10 5 6 5 4 3 3 2 2 2 2 3 6 6 7 8 11 14 14 15 16 19 19 19 21 23
11 15 17 20 23 21 25 24 25 19 17 17 19 19 15 14 14 15 13 11 2 3 3 4 4 5 5 5 5 5 6 7 7 9 11 14 15 16 17 18 19 19 22 24
13 14 14 17 23 24 24 22 24 21 19 19 22 28 32 28 11 10 8 12 7 1 3 6 7 8 8 8 7 7 8 8 8 10 12 14 15 15 17 17 19 20 23 26
15 18 23 28 27 26 25 20 22 25 24 20 26 23 28 24 15 20 7 11 14 15 11 9 9 9 8 8 8 9 10 9 9 11 13 14 16 16 15 17 20 23 26 26
14 21 21 27 28 28 27 26 29 30 28 26 25 26 20 13 16 17 17 19 17 19 21 23 12 8 9 10 10 10 10 9 9 11 13 15 16 15 17 21 25 25 28 30
10 14 17 23 23 24 28 27 29 28 29 29 30 25 16 18 20 22 23 22 22 22 22 23 18 10 10 9 9 10 9 8 9 11 13 13 16 20 22 25 28 30 34 32
8 12 16 19 19 23 21 17 15 14 16 13 14 16 17 19 20 24 21 21 24 24 25 24 22 18 10 9 9 8 6 7 11 12 14 17 20 23 26 26 29 32 32 31
11 12 17 19 20 24 24 17 16 16 18 17 16 19 21 21 19 24 25 25 25 25 24 24 23 21 19 13 10 8 8 11 13 15 17 19 23 25 25 28 31 29 29 34
16 15 18 18 19 18 18 15 17 16 18 18 19 21 24 24 26 23 25 25 26 27 24 22 23 23 21 19 13 13 14 16 18 20 21 21 22 24 25 28 28 28 33 32
14 16 16 17 19 23 21 14 16 19 18 16 19 20 22 23 22 22 25 22 22 22 22 22 23 22 21 19 17 17 18 21 20 21 22 21 22 25 25 26 28 30 33 35
8 9 14 15 17 23 11 15 17 13 14 17 20 22 23 23 25 25 22 20 21 21 22 22 22 22 21 19 19 19 21 20 21 21 21 23 25 28 27 27 28 31 34 34
13 12 12 12 16 15 13 13 11 12 16 21 21 23 24 24 25 24 20 20 21 21 22 21 21 21 22 21 20 22 21 21 20 21 23 25 24 24 24 28 30 31 32 30
14 11 15 15 17 15 12 14 15 16 18 20 21 24 24 24 22 21 20 21 22 22 21 21 22 23 24 24 25 24 22 22 22 24 25 25 26 27 27 29 29 30 31 28
17 14 16 18 15 14 17 17 16 19 20 21 23 25 24 22 22 21 21 21 21 21 21 23 25 25 25 24 24 24 22 23 25 26 26 27 27 27 28 29 29 30 26 28
17 17 17 20 17 14 16 16 16 18 20 22 22 24 24 22 22 21 21 21 21 22 23 24 24 24 24 24 24 24 24 24 26 28 27 27 27 27 28 30 31 27 30 30
Wind_Direction
210 202 198 206 218 231 245 231 236 238 237 131 109 24 113 112 119 116 84 91 106 102 100 105 109 110 118 123 117 114 110 108 107 95 66 44 45 82 64 64 57 49 36 23
251 206 223 216 204 211 240 261 241 227 141 116 16 140 133 135 135 135 129 133 122 111 116 112 81 110 122 126 114 115 112 107 108 116 115 66 93 79 69 52 41 31 25 19
229 224 216 215 232 242 264 282 282 316 17 356 302 306 253 187 141 143 150 152 145 140 130 128 127 103 123 123 129 120 121 115 122 141 117 87 79 70 46 37 32 23 17 10
238 225 203 222 231 272 289 203 241 309 317 47 305 315 262 249 339 344 148 158 165 154 148 144 141 136 132 131 124 120 129 135 137 137 108 111 74 57 30 30 28 23 12 5
251 204 219 230 235 257 251 206 248 256 337 62 268 197 301 300 190 307 347 162 173 172 164 157 152 139 134 136 126 125 125 121 139 130 113 88 58 32 38 26 17 7 358 354
207 216 271 219 237 253 263 266 261 274 321 332 293 309 336 172 204 182 287 198 163 156 169 159 148 139 138 136 134 123 109 84 63 80 80 62 57 34 17 4 355 350 349 347
233 228 230 253 243 266 306 297 300 301 293 298 295 302 29 295 306 156 168 181 164 173 158 153 153 146 122 99 101 123 109 66 50 43 40 32 28 9 352 345 342 341 341 341
266 263 286 287 287 294 297 319 320 301 315 282 303 317 324 138 152 172 171 170 121 120 137 143 138 127 98 108 106 114 98 53 29 19 8 2 357 346 340 337 338 340 340 341
274 275 280 262 298 295 311 314 330 342 275 303 300 304 341 26 91 98 162 121 121 100 114 124 125 121 115 104 115 132 17 349 352 350 341 334 334 332 332 336 339 340 342 344
276 274 295 281 281 266 324 299 305 324 307 308 315 320 355 30 15 50 131 131 111 104 110 126 131 134 128 103 272 304 295 308 328 336 335 332 331 331 334 337 336 340 340 341
293 291 289 282 291 309 351 295 291 291 298 302 315 325 352 357 19 43 126 143 142 138 132 135 144 154 153 136 240 285 298 306 314 325 329 327 326 328 330 331 332 336 338 340
278 303 299 116 168 320 295 281 300 300 299 310 314 310 323 339 0 13 23 154 166 168 171 177 186 197 209 233 263 292 306 301 308 316 323 324 323 322 325 327 331 334 336 337
299 292 289 293 287 287 275 288 284 305 312 306 306 300 332 344 340 339 349 359 135 188 216 224 237 235 244 261 271 289 304 302 305 313 317 319 318 319 321 325 330 334 334 335
297 298 298 293 282 279 289 298 287 296 298 302 294 286 276 288 334 344 2 354 7 333 266 256 258 253 255 256 267 279 298 301 308 314 317 316 317 314 320 322 331 332 334 334
297 291 283 274 282 286 288 305 295 288 292 294 290 297 284 315 345 343 4 360 353 347 347 306 276 275 270 273 280 288 295 297 304 314 320 322 323 319 323 332 334 335 333 331
304 286 288 281 281 287 291 292 283 275 279 287 297 294 316 342 345 350 352 349 352 348 342 341 338 291 282 281 286 290 292 294 304 313 319 327 334 341 338 335 334 332 334 333
306 296 292 289 295 294 286 285 280 282 282 286 284 300 330 336 341 337 336 340 342 340 339 340 346 329 312 300 292 290 292 297 309 318 327 336 336 335 336 334 334 332 331 332
305 298 296 297 300 287 293 305 314 317 321 331 331 339 346 345 347 346 351 350 346 346 343 342 341 343 331 319 311 313 311 319 329 335 338 339 338 335 336 337 334 331 331 332
311 299 295 292 290 286 283 298 304 307 310 326 330 327 331 335 346 343 346 348 346 343 343 345 348 349 350 348 353 355 354 346 342 339 340 341 343 341 336 334 331 331 331 330
301 296 289 289 290 295 293 302 308 314 307 326 330 327 326 334 331 337 341 342 342 347 352 355 355 356 356 357 6 0 351 349 346 345 344 343 341 339 334 332 333 334 332 333
305 292 285 287 291 288 287 312 316 304 311 333 335 337 336 337 341 341 340 346 355 357 358 360 360 359 360 1 3 357 353 348 349 347 343 342 336 336 336 335 334 334 334 333
318 312 294 294 296 292 314 312 310 329 337 340 338 339 341 341 340 342 351 356 358 357 359 359 360 359 0 1 358 350 344 344 340 338 335 334 332 331 333 335 336 334 334 335
302 304 307 308 304 310 322 334 347 351 348 341 342 344 344 344 343 345 353 356 357 355 356 358 358 357 355 354 353 344 341 340 340 341 340 336 338 338 338 336 335 335 336 337
298 301 302 308 312 318 328 341 347 350 349 347 349 347 346 343 348 352 352 352 351 352 352 356 353 350 348 349 348 350 351 351 349 342 340 339 339 338 338 337 336 336 336 338
291 297 301 302 311 332 332 334 340 342 346 347 349 348 347 349 349 350 349 349 351 353 353 350 347 347 348 353 354 355 354 350 344 341 339 337 337 337 336 336 336 336 339 338
293 295 296 300 312 316 323 337 342 341 340 342 344 346 349 351 349 350 351 352 352 350 349 350 351 354 353 352 351 351 348 345 340 337 336 335 335 334 334 333 334 338 336 337